DW3478 Weather Reports


Display with metric or nautical units.
time (UTC)temp
F
wind
direction
speed
MPH
gust
MPH
rain 1hr
in
rain 24hr
in
rain mn
in
humidity
%
barometer
mb
20260903165306 80 131 8.0 14.0 0.00 0.00 0.00 58 1020.0
20260903164304 80 141 8.0 14.0 0.00 0.00 0.00 59 1020.0
20260903162804 81 131 10.0 14.0 0.00 0.00 0.00 58 1020.0
20260903155805 82 154 7.0 12.0 0.00 0.00 0.00 57 1020.0
20260903155306 82 135 4.0 10.0 0.00 0.00 0.00 57 1020.0
20260903154304 82 154 5.0 10.0 0.00 0.00 0.00 57 1020.0
20260903153805 83 132 5.0 8.0 0.00 0.00 0.00 56 1020.0
20260903153304 84 145 6.0 10.0 0.00 0.00 0.00 56 1020.0
20260903152804 83 129 5.0 12.0 0.00 0.00 0.00 57 1020.0
20260903152306 83 144 4.0 7.0 0.00 0.00 0.00 56 1020.0
20260903151306 82 165 5.0 7.0 0.00 0.00 0.00 59 1020.0
20260903150806 82 200 3.0 9.0 0.00 0.00 0.00 58 1020.0
20260903145306 86 267 1.0 5.0 0.00 0.00 0.00 56 1020.0
20260903134806 83 300 1.0 3.0 0.00 0.00 0.00 57 1020.0
20260903134305 82 297 2.0 5.0 0.00 0.00 0.00 57 1020.0
20260903133806 83 294 1.0 7.0 0.00 0.00 0.00 58 1020.0
20260903132805 82 299 2.0 10.0 0.00 0.00 0.00 58 1020.0
20260903132306 82 290 2.0 10.0 0.00 0.00 0.00 58 1020.0
20260903123305 80 300 2.0 9.0 0.00 0.00 0.00 63 1021.0
20260903122806 81 317 2.0 5.0 0.00 0.00 0.00 62 1021.0
20260903121305 81 314 2.0 3.0 0.00 0.00 0.00 63 1021.0
20260903120806 80 308 2.0 3.0 0.00 0.00 0.00 63 1021.0
20260903120306 80 312 2.0 6.0 0.00 0.00 0.00 65 1021.0
20260903115805 79 291 2.0 9.0 0.00 0.00 0.00 66 1021.0
20260903115306 80 296 2.0 3.0 0.00 0.00 0.00 66 1021.0
20260903114806 79 280 2.0 7.0 0.00 0.00 0.00 69 1021.0
20260903114305 79 275 5.0 12.0 0.00 0.00 0.00 66 1021.0
20260903112805 78 305 3.0 10.0 0.00 0.00 0.00 68 1021.0
20260903112306 79 301 1.0 3.0 0.00 0.00 0.00 68 1021.0
20260903111805 78 292 1.0 3.0 0.00 0.00 0.00 70 1021.0
20260903104806 77 286 3.0 7.0 0.00 0.00 0.00 70 1021.0
20260903100306 73 310 0.0 1.0 0.00 0.00 0.00 81 1021.0
20260903095806 73 276 0.0 3.0 0.00 0.00 0.00 82 1021.0
20260903095306 73 300 0.0 2.0 0.00 0.00 0.00 82 1021.0
20260903094806 73 271 0.0 2.0 0.00 0.00 0.00 84 1021.0
20260903094306 72 286 0.0 3.0 0.00 0.00 0.00 85 1021.0
20260903092805 72 279 1.0 5.0 0.00 0.00 0.00 85 1021.0
20260903091805 71 266 0.0 3.0 0.00 0.00 0.00 86 1021.0
20260903091305 71 330 1.0 3.0 0.00 0.00 0.00 86 1021.0
20260903090805 71 289 0.0 7.0 0.00 0.00 0.00 86 1021.0
20260903085306 71 0 1.0 3.0 0.00 0.00 0.00 87 1021.0
20260903084805 71 287 1.0 7.0 0.00 0.00 0.00 87 1021.0
20260903083805 71 254 1.0 3.0 0.00 0.00 0.00 88 1021.0
20260903083305 71 258 0.0 3.0 0.00 0.00 0.00 88 1021.0
20260903082806 71 248 0.0 3.0 0.00 0.00 0.00 88 1021.0
20260903081305 70 245 0.0 2.0 0.00 0.00 0.00 88 1021.0
20260903080305 70 245 1.0 3.0 0.00 0.00 0.00 88 1021.0
20260903075805 70 254 1.0 2.0 0.00 0.00 0.00 89 1021.0
20260903073805 69 128 1.0 2.0 0.00 0.00 0.00 88 1020.0
20260903072805 69 9 0.0 1.0 0.00 0.00 0.00 89 1020.0
20260903071305 69 15 0.0 1.0 0.00 0.00 0.00 89 1020.0
20260903070804 69 15 0.0 1.0 0.00 0.00 0.00 89 1020.0
20260903070306 69 15 1.0 2.0 0.00 0.00 0.00 89 1020.0
20260903065805 69 15 1.0 2.0 0.00 0.00 0.00 89 1020.0
20260903062306 68 5 1.0 2.0 0.00 0.00 0.00 89 1019.0
20260903061805 68 338 1.0 2.0 0.00 0.00 0.00 89 1019.0
20260903055805 68 331 0.0 3.0 0.00 0.00 0.00 89 1019.0
20260903055306 68 342 0.0 3.0 0.00 0.00 0.00 88 1019.0
20260903054805 68 342 1.0 2.0 0.00 0.00 0.00 88 1019.0
20260903054306 68 355 1.0 3.0 0.00 0.00 0.00 88 1019.0
20260903051305 68 6 1.0 2.0 0.00 0.01 0.00 88 1019.0
20260903050305 68 21 2.0 3.0 0.00 0.01 0.00 88 1019.0
20260903044805 68 10 1.0 2.0 0.00 0.01 0.00 87 1019.0
20260903044305 68 4 1.0 2.0 0.00 0.01 0.00 87 1019.0
20260903043305 68 321 1.0 2.0 0.00 0.01 0.00 87 1019.0
20260903042805 68 349 1.0 2.0 0.00 0.01 0.00 87 1019.0
20260903042306 68 356 2.0 3.0 0.00 0.01 0.00 87 1019.0
20260903041805 68 17 1.0 3.0 0.00 0.01 0.00 87 1019.0
20260903040304 69 7 1.0 3.0 0.00 0.01 0.00 88 1019.0
20260903035804 69 357 1.0 2.0 0.00 0.01 0.00 88 1019.0
20260903035306 69 14 1.0 3.0 0.00 0.01 0.00 88 1019.0
20260903034805 69 353 1.0 3.0 0.00 0.01 0.00 88 1019.0
20260903033804 69 25 2.0 3.0 0.00 0.01 0.00 88 1019.0
20260903033305 69 33 0.0 0.0 0.00 0.01 0.00 88 1019.0
20260903025306 69 83 0.0 2.0 0.00 0.01 0.00 89 1019.0
20260903024805 69 84 1.0 3.0 0.00 0.01 0.00 89 1019.0
20260903024304 69 60 1.0 2.0 0.00 0.01 0.00 89 1019.0
20260903023805 69 84 2.0 3.0 0.00 0.01 0.00 89 1019.0
20260903023304 69 95 1.0 3.0 0.00 0.01 0.00 89 1019.0
20260903021805 69 30 0.0 2.0 0.00 0.01 0.00 89 1019.0
20260903021305 69 18 1.0 3.0 0.00 0.01 0.00 88 1019.0
20260903020305 69 23 1.0 2.0 0.00 0.01 0.00 88 1020.0
20260903013805 69 37 1.0 3.0 0.00 0.01 0.00 89 1020.0
20260903012306 69 37 1.0 3.0 0.00 0.01 0.00 89 1020.0
20260903011805 69 17 1.0 3.0 0.00 0.01 0.00 88 1020.0
20260903010805 69 33 1.0 2.0 0.00 0.01 0.00 88 1020.0
20260903004805 69 19 1.0 3.0 0.00 0.01 0.00 88 1020.0
20260903004305 69 16 1.0 3.0 0.00 0.01 0.00 88 1020.0
20260903003304 69 20 2.0 3.0 0.00 0.01 0.00 88 1020.0
20260903002805 69 21 2.0 3.0 0.00 0.01 0.00 88 1020.0
20260903001805 70 17 0.0 0.0 0.00 0.01 0.00 88 1020.0
20260903001304 70 14 0.0 0.0 0.00 0.01 0.00 88 1020.0
20260903000805 70 14 0.0 0.0 0.00 0.01 0.00 88 1020.0
20260902235805 70 14 0.0 0.0 0.00 0.01 0.00 88 1020.0
20260902234805 70 14 1.0 2.0 0.00 0.01 0.00 88 1020.0
20260902233305 71 38 0.0 0.0 0.00 0.01 0.00 88 1020.0
20260902232306 71 38 0.0 0.0 0.00 0.01 0.00 88 1020.0
20260902231805 71 38 0.0 1.0 0.00 0.01 0.00 88 1020.0
20260902231304 71 38 0.0 1.0 0.00 0.01 0.00 88 1020.0
20260902230804 71 52 0.0 1.0 0.00 0.01 0.00 88 1021.0
20260902230305 71 130 0.0 0.0 0.00 0.01 0.00 88 1021.0
20260902225805 71 130 0.0 3.0 0.00 0.01 0.01 88 1021.0
20260902224304 72 139 1.0 2.0 0.00 0.01 0.01 88 1021.0
20260902221805 72 100 0.0 3.0 0.00 0.01 0.01 87 1021.0
20260902221304 72 181 0.0 0.0 0.00 0.01 0.01 87 1021.0
20260902220805 72 181 0.0 2.0 0.00 0.01 0.01 87 1020.0
20260902215306 72 330 0.0 2.0 0.00 0.01 0.01 86 1020.0
20260902214805 72 269 0.0 1.0 0.00 0.01 0.01 86 1020.0
20260902214305 72 299 0.0 5.0 0.00 0.01 0.01 86 1020.0
20260902213305 72 222 0.0 1.0 0.00 0.01 0.01 86 1020.0
20260902212804 72 222 0.0 2.0 0.00 0.01 0.01 86 1020.0
20260902212306 72 246 1.0 3.0 0.00 0.01 0.01 86 1020.0
20260902211805 73 252 0.0 1.0 0.00 0.01 0.01 86 1020.0
20260902211304 73 252 0.0 1.0 0.00 0.01 0.01 86 1020.0
20260902210804 73 252 0.0 1.0 0.00 0.01 0.01 86 1020.0
20260902210304 73 303 0.0 1.0 0.00 0.01 0.01 86 1020.0
20260902203805 73 236 0.0 0.0 0.00 0.01 0.01 85 1019.0
20260902203304 73 236 0.0 0.0 0.00 0.01 0.01 85 1019.0
20260902200805 73 257 1.0 2.0 0.00 0.01 0.01 83 1019.0
20260902200305 73 257 1.0 3.0 0.00 0.01 0.01 82 1019.0
20260902195306 73 223 1.0 2.0 0.00 0.01 0.01 80 1019.0
20260902194804 73 223 1.0 2.0 0.00 0.01 0.01 80 1019.0
20260902194305 74 260 1.0 3.0 0.00 0.01 0.01 79 1019.0
20260902193305 74 209 0.0 2.0 0.00 0.01 0.01 79 1019.0
20260902192804 74 209 0.0 2.0 0.00 0.01 0.01 79 1019.0
20260902192307 74 209 0.0 1.0 0.00 0.01 0.01 79 1019.0
20260902191804 74 209 0.0 2.0 0.00 0.01 0.01 79 1019.0
20260902190804 74 176 1.0 3.0 0.00 0.01 0.01 78 1019.0
20260902185805 74 186 2.0 3.0 0.00 0.01 0.01 78 1019.0
20260902184304 75 153 2.0 3.0 0.00 0.01 0.01 78 1019.0
20260902182805 75 154 1.0 5.0 0.00 0.01 0.01 79 1020.0
20260902182306 75 130 3.0 6.0 0.00 0.01 0.01 79 1020.0
20260902181804 75 148 3.0 6.0 0.00 0.01 0.01 78 1020.0
20260902181305 75 162 3.0 6.0 0.00 0.01 0.01 78 1020.0
20260902180804 75 171 4.0 8.0 0.00 0.01 0.01 79 1020.0
20260902175307 75 151 4.0 7.0 0.00 0.01 0.01 79 1020.0
20260902174805 75 124 4.0 7.0 0.00 0.01 0.01 79 1020.0
20260902174305 75 181 4.0 6.0 0.00 0.01 0.01 79 1020.0
20260902172805 76 136 5.0 7.0 0.00 0.01 0.01 77 1020.0
20260902171805 76 152 3.0 7.0 0.00 0.01 0.01 75 1020.0
20260902165805 76 146 4.0 7.0 0.00 0.01 0.01 76 1020.0